Location: Corralito
(10.2667°N, 66.9500°W)
Time: 12:15:53
(UTC+00:00)

YAOGAN 3 - Pass Details

Date: 05 December 2023
Orbit: 615 x 616 km, 97.9° (Epoch: 28 February)

Event Time Altitude Azimuth Distance (km) Brightness Sun altitude
Rises 00:05:43 0° 192° (SSW) 2,873 8.4 -28.7°
Reaches altitude 10° 00:08:13 10° 205° (SSW) 1,968 7.6 -29.2°
Maximum altitude 00:11:42 24° 260° (W) 1,269 6.8 -30.0°
Drops below altitude 10° 00:15:10 10° 314° (NW) 1,967 7.4 -30.8°
Sets 00:17:41 0° 328° (NNW) 2,872 8.1 -31.4°
